contact:dominique.lefevre@mio.osupytheas.fr, maurice.libes@osupytheas.fr, didier.mallarino@osupytheas.fr
Project:EMSO http://www.emso-fr.org/EMSO-France
Depth: 2436.0 m
Title:EMSO Ligure Ouest : Data MII capteur MICROCAT
DateTime_Computer,Latitude,Longitude,Temperature,Conductivity,Pressure,DateTime_Instrument
DateTime_Computer,Latitude,Longitude,degC,S m-1,dbar,DateTime_Instrument
2019-06-28T00:02:52Z,42.805,6.029,13.3015,4.60026,2469.867,2019-6-28T02:03:09Z
2019-06-28T00:05:55Z,42.805,6.029,13.2993,4.60033,2469.89,2019-6-28T02:06:12Z
2019-06-28T00:08:58Z,42.805,6.029,13.3027,4.59989,2469.806,2019-6-28T02:09:15Z
2019-06-28T00:12:01Z,42.805,6.029,13.3009,4.60023,2469.844,2019-6-28T02:12:18Z
2019-06-28T00:15:04Z,42.805,6.029,13.3018,4.59999,2469.83,2019-6-28T02:15:21Z
2019-06-28T00:18:07Z,42.805,6.029,13.3036,4.60006,2469.853,2019-6-28T02:18:24Z
2019-06-28T00:21:10Z,42.805,6.029,13.2993,4.59996,2469.83,2019-6-28T02:21:27Z
2019-06-28T00:24:13Z,42.805,6.029,13.3019,4.60010,2469.867,2019-6-28T02:24:30Z
2019-06-28T00:27:15Z,42.805,6.029,13.3021,4.60013,2469.844,2019-6-28T02:27:33Z
2019-06-28T00:30:18Z,42.805,6.029,13.3010,4.59997,2469.867,2019-6-28T02:30:35Z
2019-06-28T00:33:21Z,42.805,6.029,13.3042,4.60033,2469.867,2019-6-28T02:33:38Z
2019-06-28T00:36:24Z,42.805,6.029,13.2980,4.60025,2469.853,2019-6-28T02:36:41Z
2019-06-28T00:39:27Z,42.805,6.029,13.2995,4.60020,2469.83,2019-6-28T02:39:44Z
2019-06-28T00:42:30Z,42.805,6.029,13.3004,4.60026,2469.867,2019-6-28T02:42:47Z
2019-06-28T00:45:33Z,42.805,6.029,13.3024,4.59993,2469.867,2019-6-28T02:45:50Z
2019-06-28T00:48:36Z,42.805,6.029,13.2974,4.60003,2469.867,2019-6-28T02:48:53Z
2019-06-28T00:51:39Z,42.805,6.029,13.2997,4.60045,2469.853,2019-6-28T02:51:56Z
2019-06-28T00:54:42Z,42.805,6.029,13.2993,4.60013,2469.89,2019-6-28T02:54:59Z
2019-06-28T00:57:45Z,42.805,6.029,13.3015,4.60019,2469.867,2019-6-28T02:58:02Z
2019-06-28T01:00:48Z,42.805,6.029,13.2995,4.60021,2469.853,2019-6-28T03:01:05Z
2019-06-28T01:03:51Z,42.805,6.029,13.3025,4.60016,2469.853,2019-6-28T03:04:08Z
2019-06-28T01:06:54Z,42.805,6.029,13.3021,4.60014,2469.853,2019-6-28T03:07:11Z
2019-06-28T01:09:57Z,42.805,6.029,13.3004,4.60046,2469.89,2019-6-28T03:10:14Z
2019-06-28T01:13:00Z,42.805,6.029,13.3000,4.60009,2469.89,2019-6-28T03:13:17Z
2019-06-28T01:16:03Z,42.805,6.029,13.3013,4.60044,2469.867,2019-6-28T03:16:20Z
2019-06-28T01:19:06Z,42.805,6.029,13.3021,4.60019,2469.853,2019-6-28T03:19:23Z
2019-06-28T01:22:09Z,42.805,6.029,13.3041,4.60019,2469.867,2019-6-28T03:22:26Z
2019-06-28T01:25:12Z,42.805,6.029,13.2993,4.59991,2469.914,2019-6-28T03:25:29Z
2019-06-28T01:28:14Z,42.805,6.029,13.2990,4.60013,2469.853,2019-6-28T03:28:32Z
2019-06-28T01:31:17Z,42.805,6.029,13.2996,4.60028,2469.89,2019-6-28T03:31:34Z
2019-06-28T01:34:20Z,42.805,6.029,13.3034,4.60031,2469.876,2019-6-28T03:34:37Z
2019-06-28T01:37:23Z,42.805,6.029,13.2975,4.60009,2469.844,2019-6-28T03:37:40Z
2019-06-28T01:40:26Z,42.805,6.029,13.3002,4.59991,2469.867,2019-6-28T03:40:43Z
2019-06-28T01:43:29Z,42.805,6.029,13.2987,4.59999,2469.876,2019-6-28T03:43:46Z
2019-06-28T01:46:32Z,42.805,6.029,13.3007,4.59981,2469.876,2019-6-28T03:46:49Z
2019-06-28T01:49:35Z,42.805,6.029,13.3027,4.60017,2469.876,2019-6-28T03:49:52Z
2019-06-28T01:52:38Z,42.805,6.029,13.3006,4.60006,2469.89,2019-6-28T03:52:55Z
2019-06-28T01:55:41Z,42.805,6.029,13.3004,4.60015,2469.914,2019-6-28T03:55:58Z
2019-06-28T01:58:44Z,42.805,6.029,13.3009,4.59989,2469.923,2019-6-28T03:59:01Z
2019-06-28T02:01:47Z,42.805,6.029,13.3015,4.59978,2469.914,2019-6-28T04:02:04Z
2019-06-28T02:04:50Z,42.805,6.029,13.3003,4.59982,2469.876,2019-6-28T04:05:07Z
2019-06-28T02:07:53Z,42.805,6.029,13.2994,4.59987,2469.867,2019-6-28T04:08:10Z
2019-06-28T02:10:56Z,42.805,6.029,13.3029,4.59994,2469.914,2019-6-28T04:11:13Z
2019-06-28T02:13:59Z,42.805,6.029,13.3021,4.60067,2469.89,2019-6-28T04:14:16Z
2019-06-28T02:17:02Z,42.805,6.029,13.3009,4.60005,2469.9,2019-6-28T04:17:19Z
2019-06-28T02:20:05Z,42.805,6.029,13.3008,4.60042,2469.937,2019-6-28T04:20:22Z
2019-06-28T02:23:08Z,42.805,6.029,13.2997,4.60015,2469.914,2019-6-28T04:23:25Z
2019-06-28T02:26:10Z,42.805,6.029,13.2968,4.60036,2469.89,2019-6-28T04:26:28Z
2019-06-28T02:29:13Z,42.805,6.029,13.2989,4.60002,2469.876,2019-6-28T04:29:30Z
2019-06-28T02:32:16Z,42.805,6.029,13.2997,4.60015,2469.9,2019-6-28T04:32:33Z
2019-06-28T02:35:19Z,42.805,6.029,13.3005,4.60011,2469.9,2019-6-28T04:35:36Z
2019-06-28T02:38:22Z,42.805,6.029,13.3024,4.59989,2469.914,2019-6-28T04:38:39Z
2019-06-28T02:41:25Z,42.805,6.029,13.2996,4.59967,2469.876,2019-6-28T04:41:42Z
2019-06-28T02:44:28Z,42.805,6.029,13.2993,4.59998,2469.914,2019-6-28T04:44:45Z
2019-06-28T02:47:31Z,42.805,6.029,13.2972,4.60016,2469.9,2019-6-28T04:47:48Z
2019-06-28T02:50:34Z,42.805,6.029,13.2989,4.60015,2469.9,2019-6-28T04:50:51Z
2019-06-28T02:53:37Z,42.805,6.029,13.3015,4.59985,2469.923,2019-6-28T04:53:54Z
2019-06-28T02:56:40Z,42.805,6.029,13.2994,4.59991,2469.9,2019-6-28T04:56:57Z
2019-06-28T02:59:43Z,42.805,6.029,13.2993,4.59987,2469.923,2019-6-28T05:00:00Z
2019-06-28T03:02:46Z,42.805,6.029,13.2979,4.59994,2469.923,2019-6-28T05:03:03Z
2019-06-28T03:05:49Z,42.805,6.029,13.2974,4.60000,2469.9,2019-6-28T05:06:06Z
2019-06-28T03:08:52Z,42.805,6.029,13.2976,4.60029,2469.9,2019-6-28T05:09:09Z
2019-06-28T03:11:55Z,42.805,6.029,13.2984,4.59990,2469.937,2019-6-28T05:12:12Z
2019-06-28T03:14:58Z,42.805,6.029,13.2990,4.60001,2469.9,2019-6-28T05:15:15Z
2019-06-28T03:18:01Z,42.805,6.029,13.3009,4.59991,2469.914,2019-6-28T05:18:18Z
2019-06-28T03:21:04Z,42.805,6.029,13.2975,4.60023,2469.923,2019-6-28T05:21:21Z
2019-06-28T03:24:06Z,42.805,6.029,13.3027,4.60019,2469.923,2019-6-28T05:24:24Z
2019-06-28T03:27:09Z,42.805,6.029,13.3017,4.60004,2469.914,2019-6-28T05:27:26Z
2019-06-28T03:30:12Z,42.805,6.029,13.2977,4.59978,2469.914,2019-6-28T05:30:29Z
2019-06-28T03:33:15Z,42.805,6.029,13.2988,4.60000,2469.923,2019-6-28T05:33:32Z
2019-06-28T03:36:18Z,42.805,6.029,13.2993,4.59999,2469.96,2019-6-28T05:36:35Z
2019-06-28T03:39:21Z,42.805,6.029,13.2991,4.60003,2469.923,2019-6-28T05:39:38Z
2019-06-28T03:42:24Z,42.805,6.029,13.2990,4.60005,2469.876,2019-6-28T05:42:41Z
2019-06-28T03:45:27Z,42.805,6.029,13.2995,4.59981,2469.914,2019-6-28T05:45:44Z
2019-06-28T03:48:30Z,42.805,6.029,13.3004,4.60011,2469.9,2019-6-28T05:48:47Z
2019-06-28T03:51:33Z,42.805,6.029,13.2990,4.60001,2469.937,2019-6-28T05:51:50Z
2019-06-28T03:54:36Z,42.805,6.029,13.2993,4.60016,2469.914,2019-6-28T05:54:53Z
2019-06-28T03:57:39Z,42.805,6.029,13.2990,4.60002,2469.923,2019-6-28T05:57:56Z
2019-06-28T04:00:42Z,42.805,6.029,13.3000,4.60005,2469.914,2019-6-28T06:00:59Z
2019-06-28T04:03:45Z,42.805,6.029,13.2994,4.59982,2469.89,2019-6-28T06:04:02Z
2019-06-28T04:06:48Z,42.805,6.029,13.2974,4.60014,2469.923,2019-6-28T06:07:05Z
2019-06-28T04:09:51Z,42.805,6.029,13.2994,4.60003,2469.89,2019-6-28T06:10:08Z
2019-06-28T04:12:54Z,42.805,6.029,13.2989,4.60029,2469.876,2019-6-28T06:13:11Z
2019-06-28T04:15:57Z,42.805,6.029,13.2993,4.60014,2469.89,2019-6-28T06:16:14Z
2019-06-28T04:19:00Z,42.805,6.029,13.2982,4.60001,2469.9,2019-6-28T06:19:17Z
2019-06-28T04:22:02Z,42.805,6.029,13.2988,4.60024,2469.914,2019-6-28T06:22:20Z
2019-06-28T04:25:05Z,42.805,6.029,13.2995,4.59993,2469.9,2019-6-28T06:25:22Z
2019-06-28T04:28:08Z,42.805,6.029,13.2997,4.60000,2469.9,2019-6-28T06:28:25Z
2019-06-28T04:31:11Z,42.805,6.029,13.2996,4.59977,2469.9,2019-6-28T06:31:28Z
2019-06-28T04:34:14Z,42.805,6.029,13.3011,4.60017,2469.9,2019-6-28T06:34:31Z
2019-06-28T04:37:17Z,42.805,6.029,13.3016,4.60032,2469.876,2019-6-28T06:37:34Z
2019-06-28T04:40:20Z,42.805,6.029,13.3012,4.60029,2469.89,2019-6-28T06:40:37Z
2019-06-28T04:43:23Z,42.805,6.029,13.3013,4.60014,2469.9,2019-6-28T06:43:40Z
2019-06-28T04:46:26Z,42.805,6.029,13.3004,4.60019,2469.9,2019-6-28T06:46:43Z
2019-06-28T04:49:29Z,42.805,6.029,13.2995,4.60051,2469.914,2019-6-28T06:49:46Z
2019-06-28T04:52:32Z,42.805,6.029,13.3047,4.60031,2469.9,2019-6-28T06:52:49Z
2019-06-28T04:55:35Z,42.805,6.029,13.3038,4.59996,2469.923,2019-6-28T06:55:52Z
2019-06-28T04:58:38Z,42.805,6.029,13.2985,4.60003,2469.914,2019-6-28T06:58:55Z
2019-06-28T05:01:41Z,42.805,6.029,13.3009,4.60019,2469.914,2019-6-28T07:01:58Z
2019-06-28T05:04:44Z,42.805,6.029,13.2997,4.60001,2469.914,2019-6-28T07:05:01Z
2019-06-28T05:07:47Z,42.805,6.029,13.3026,4.59990,2469.923,2019-6-28T07:08:04Z
2019-06-28T05:10:50Z,42.805,6.029,13.2987,4.59999,2469.876,2019-6-28T07:11:07Z
2019-06-28T05:13:53Z,42.805,6.029,13.3000,4.60024,2469.876,2019-6-28T07:14:10Z
2019-06-28T05:16:56Z,42.805,6.029,13.3005,4.60016,2469.876,2019-6-28T07:17:13Z
2019-06-28T05:19:59Z,42.805,6.029,13.3048,4.59983,2469.89,2019-6-28T07:20:16Z
2019-06-28T05:23:01Z,42.805,6.029,13.3031,4.60001,2469.867,2019-6-28T07:23:19Z
2019-06-28T05:26:04Z,42.805,6.029,13.2989,4.59977,2469.89,2019-6-28T07:26:21Z
2019-06-28T05:29:07Z,42.805,6.029,13.3015,4.59994,2469.89,2019-6-28T07:29:24Z
2019-06-28T05:32:10Z,42.805,6.029,13.3000,4.60009,2469.914,2019-6-28T07:32:27Z
2019-06-28T05:35:13Z,42.805,6.029,13.3022,4.60025,2469.89,2019-6-28T07:35:30Z
2019-06-28T05:38:16Z,42.805,6.029,13.3024,4.60002,2469.914,2019-6-28T07:38:33Z
2019-06-28T05:41:19Z,42.805,6.029,13.3029,4.60006,2469.876,2019-6-28T07:41:36Z
2019-06-28T05:44:22Z,42.805,6.029,13.3019,4.60033,2469.89,2019-6-28T07:44:39Z
2019-06-28T05:47:25Z,42.805,6.029,13.3017,4.60042,2469.89,2019-6-28T07:47:42Z
2019-06-28T05:50:28Z,42.805,6.029,13.3036,4.60011,2469.876,2019-6-28T07:50:45Z
2019-06-28T05:53:31Z,42.805,6.029,13.3037,4.59990,2469.9,2019-6-28T07:53:48Z
2019-06-28T05:56:34Z,42.805,6.029,13.3036,4.59990,2469.89,2019-6-28T07:56:51Z
2019-06-28T05:59:37Z,42.805,6.029,13.3026,4.60011,2469.89,2019-6-28T07:59:54Z
2019-06-28T06:02:40Z,42.805,6.029,13.3016,4.60044,2469.853,2019-6-28T08:02:57Z
2019-06-28T06:05:43Z,42.805,6.029,13.3024,4.60081,2469.867,2019-6-28T08:06:00Z
2019-06-28T06:08:46Z,42.805,6.029,13.3013,4.59993,2469.867,2019-6-28T08:09:03Z
2019-06-28T06:11:49Z,42.805,6.029,13.3014,4.60019,2469.867,2019-6-28T08:12:06Z
2019-06-28T06:14:52Z,42.805,6.029,13.3035,4.60031,2469.867,2019-6-28T08:15:09Z
2019-06-28T06:17:55Z,42.805,6.029,13.3027,4.60039,2469.867,2019-6-28T08:18:12Z
2019-06-28T06:20:57Z,42.805,6.029,13.3036,4.60062,2469.89,2019-6-28T08:21:15Z
2019-06-28T06:24:00Z,42.805,6.029,13.3051,4.60018,2469.89,2019-6-28T08:24:17Z
2019-06-28T06:27:03Z,42.805,6.029,13.3035,4.60013,2469.867,2019-6-28T08:27:20Z
2019-06-28T06:30:06Z,42.805,6.029,13.3043,4.60033,2469.844,2019-6-28T08:30:23Z
2019-06-28T06:33:09Z,42.805,6.029,13.3024,4.60026,2469.867,2019-6-28T08:33:26Z
2019-06-28T06:36:12Z,42.805,6.029,13.3024,4.60024,2469.83,2019-6-28T08:36:29Z
2019-06-28T06:39:15Z,42.805,6.029,13.3024,4.60064,2469.853,2019-6-28T08:39:32Z
2019-06-28T06:42:18Z,42.805,6.029,13.3026,4.60046,2469.867,2019-6-28T08:42:35Z
2019-06-28T06:45:21Z,42.805,6.029,13.3023,4.59994,2469.853,2019-6-28T08:45:38Z
2019-06-28T06:48:24Z,42.805,6.029,13.3015,4.60040,2469.844,2019-6-28T08:48:41Z
2019-06-28T06:51:27Z,42.805,6.029,13.2986,4.60057,2469.867,2019-6-28T08:51:44Z
2019-06-28T06:54:30Z,42.805,6.029,13.3019,4.60036,2469.83,2019-6-28T08:54:47Z
2019-06-28T06:57:33Z,42.805,6.029,13.3020,4.60040,2469.853,2019-6-28T08:57:50Z
2019-06-28T07:00:36Z,42.805,6.029,13.3011,4.60016,2469.821,2019-6-28T09:00:53Z
2019-06-28T07:03:39Z,42.805,6.029,13.3013,4.60056,2469.844,2019-6-28T09:03:56Z
2019-06-28T07:06:42Z,42.805,6.029,13.3040,4.60033,2469.844,2019-6-28T09:06:59Z
2019-06-28T07:09:45Z,42.805,6.029,13.3039,4.60031,2469.844,2019-6-28T09:10:02Z
2019-06-28T07:12:48Z,42.805,6.029,13.3039,4.60044,2469.844,2019-6-28T09:13:05Z
2019-06-28T07:15:51Z,42.805,6.029,13.3045,4.60054,2469.853,2019-6-28T09:16:08Z
2019-06-28T07:18:53Z,42.805,6.029,13.3011,4.60037,2469.821,2019-6-28T09:19:11Z
2019-06-28T07:21:56Z,42.805,6.029,13.3013,4.60027,2469.806,2019-6-28T09:22:14Z
2019-06-28T07:24:59Z,42.805,6.029,13.2989,4.60049,2469.821,2019-6-28T09:25:16Z
2019-06-28T07:28:02Z,42.805,6.029,13.3005,4.60037,2469.821,2019-6-28T09:28:19Z
2019-06-28T07:31:05Z,42.805,6.029,13.3017,4.60049,2469.844,2019-6-28T09:31:22Z
2019-06-28T07:34:08Z,42.805,6.029,13.2986,4.60005,2469.83,2019-6-28T09:34:25Z
2019-06-28T07:37:11Z,42.805,6.029,13.3003,4.60062,2469.844,2019-6-28T09:37:28Z
2019-06-28T07:40:14Z,42.805,6.029,13.3001,4.60042,2469.821,2019-6-28T09:40:31Z
2019-06-28T07:43:17Z,42.805,6.029,13.3016,4.60029,2469.806,2019-6-28T09:43:34Z
2019-06-28T07:46:20Z,42.805,6.029,13.3014,4.60045,2469.821,2019-6-28T09:46:37Z
2019-06-28T07:49:23Z,42.805,6.029,13.3011,4.60082,2469.806,2019-6-28T09:49:40Z
2019-06-28T07:52:26Z,42.805,6.029,13.3007,4.60040,2469.806,2019-6-28T09:52:43Z
2019-06-28T07:55:29Z,42.805,6.029,13.3004,4.60013,2469.783,2019-6-28T09:55:46Z
2019-06-28T07:58:32Z,42.805,6.029,13.3006,4.60055,2469.821,2019-6-28T09:58:49Z
2019-06-28T08:01:35Z,42.805,6.029,13.3002,4.60021,2469.844,2019-6-28T10:01:52Z
2019-06-28T08:04:38Z,42.805,6.029,13.3001,4.60035,2469.806,2019-6-28T10:04:55Z
2019-06-28T08:07:41Z,42.805,6.029,13.3024,4.60013,2469.797,2019-6-28T10:07:58Z
2019-06-28T08:10:44Z,42.805,6.029,13.3024,4.60054,2469.783,2019-6-28T10:11:01Z
2019-06-28T08:13:47Z,42.805,6.029,13.3024,4.60044,2469.783,2019-6-28T10:14:04Z
2019-06-28T08:16:50Z,42.805,6.029,13.3034,4.60079,2469.797,2019-6-28T10:17:07Z
2019-06-28T08:19:53Z,42.805,6.029,13.3026,4.60086,2469.783,2019-6-28T10:20:10Z
2019-06-28T08:22:55Z,42.805,6.029,13.2998,4.60049,2469.806,2019-6-28T10:23:13Z
2019-06-28T08:25:58Z,42.805,6.029,13.3029,4.60036,2469.783,2019-6-28T10:26:15Z
2019-06-28T08:29:01Z,42.805,6.029,13.3023,4.60019,2469.76,2019-6-28T10:29:18Z
2019-06-28T08:32:04Z,42.805,6.029,13.3006,4.60013,2469.783,2019-6-28T10:32:21Z
2019-06-28T08:35:07Z,42.805,6.029,13.3014,4.60033,2469.797,2019-6-28T10:35:24Z
2019-06-28T08:38:10Z,42.805,6.029,13.3021,4.60046,2469.773,2019-6-28T10:38:27Z
2019-06-28T08:41:13Z,42.805,6.029,13.3017,4.60049,2469.797,2019-6-28T10:41:30Z
2019-06-28T08:44:16Z,42.805,6.029,13.3020,4.60035,2469.76,2019-6-28T10:44:33Z
2019-06-28T08:47:19Z,42.805,6.029,13.3010,4.60032,2469.797,2019-6-28T10:47:36Z
2019-06-28T08:50:22Z,42.805,6.029,13.2990,4.60033,2469.773,2019-6-28T10:50:39Z
2019-06-28T08:53:25Z,42.805,6.029,13.3020,4.60011,2469.773,2019-6-28T10:53:42Z
2019-06-28T08:56:28Z,42.805,6.029,13.2996,4.60037,2469.76,2019-6-28T10:56:45Z
2019-06-28T08:59:31Z,42.805,6.029,13.2990,4.60072,2469.821,2019-6-28T10:59:48Z
2019-06-28T09:02:34Z,42.805,6.029,13.3017,4.60028,2469.76,2019-6-28T11:02:51Z
2019-06-28T09:05:37Z,42.805,6.029,13.3021,4.60024,2469.783,2019-6-28T11:05:54Z
2019-06-28T09:08:40Z,42.805,6.029,13.3004,4.60027,2469.76,2019-6-28T11:08:57Z
2019-06-28T09:11:43Z,42.805,6.029,13.3005,4.60034,2469.797,2019-6-28T11:12:00Z
2019-06-28T09:14:46Z,42.805,6.029,13.3022,4.60024,2469.769,2019-6-28T11:15:03Z
2019-06-28T09:17:49Z,42.805,6.029,13.3001,4.60010,2469.773,2019-6-28T11:18:06Z
2019-06-28T09:20:52Z,42.805,6.029,13.3014,4.60024,2469.797,2019-6-28T11:21:09Z
2019-06-28T09:23:55Z,42.805,6.029,13.3006,4.60036,2469.76,2019-6-28T11:24:12Z
2019-06-28T09:26:57Z,42.805,6.029,13.3013,4.59998,2469.797,2019-6-28T11:27:15Z
2019-06-28T09:30:00Z,42.805,6.029,13.3012,4.60050,2469.773,2019-6-28T11:30:18Z
2019-06-28T09:33:03Z,42.805,6.029,13.3015,4.60043,2469.76,2019-6-28T11:33:20Z
2019-06-28T09:36:06Z,42.805,6.029,13.3029,4.60036,2469.773,2019-6-28T11:36:23Z
2019-06-28T09:39:09Z,42.805,6.029,13.3029,4.60027,2469.773,2019-6-28T11:39:26Z
2019-06-28T09:42:12Z,42.805,6.029,13.3009,4.60025,2469.76,2019-6-28T11:42:29Z
2019-06-28T09:45:15Z,42.805,6.029,13.3019,4.60016,2469.76,2019-6-28T11:45:32Z
2019-06-28T09:48:18Z,42.805,6.029,13.3004,4.60031,2469.76,2019-6-28T11:48:35Z
2019-06-28T09:51:21Z,42.805,6.029,13.2991,4.60054,2469.76,2019-6-28T11:51:38Z
2019-06-28T09:54:24Z,42.805,6.029,13.2994,4.60061,2469.773,2019-6-28T11:54:41Z
2019-06-28T09:57:27Z,42.805,6.029,13.3014,4.60042,2469.783,2019-6-28T11:57:44Z
2019-06-28T10:00:30Z,42.805,6.029,13.3030,4.60059,2469.797,2019-6-28T12:00:47Z
2019-06-28T10:03:33Z,42.805,6.029,13.3023,4.60052,2469.773,2019-6-28T12:03:50Z
2019-06-28T10:06:36Z,42.805,6.029,13.3020,4.59981,2469.737,2019-6-28T12:06:53Z
2019-06-28T10:09:39Z,42.805,6.029,13.3023,4.60046,2469.737,2019-6-28T12:09:56Z
2019-06-28T10:12:42Z,42.805,6.029,13.2976,4.60040,2469.797,2019-6-28T12:12:59Z
2019-06-28T10:15:45Z,42.805,6.029,13.3011,4.60031,2469.76,2019-6-28T12:16:02Z
2019-06-28T10:18:48Z,42.805,6.029,13.3024,4.60023,2469.769,2019-6-28T12:19:05Z
2019-06-28T10:21:51Z,42.805,6.029,13.3021,4.59986,2469.75,2019-6-28T12:22:08Z
2019-06-28T10:24:54Z,42.805,6.029,13.3015,4.60019,2469.773,2019-6-28T12:25:11Z
2019-06-28T10:27:57Z,42.805,6.029,13.2983,4.60005,2469.773,2019-6-28T12:28:14Z
2019-06-28T10:30:59Z,42.805,6.029,13.3021,4.60035,2469.773,2019-6-28T12:31:17Z
2019-06-28T10:34:02Z,42.805,6.029,13.3011,4.60032,2469.75,2019-6-28T12:34:20Z
2019-06-28T10:37:05Z,42.805,6.029,13.3008,4.60043,2469.773,2019-6-28T12:37:22Z
2019-06-28T10:40:08Z,42.805,6.029,13.2980,4.60019,2469.727,2019-6-28T12:40:25Z
2019-06-28T10:43:11Z,42.805,6.029,13.3011,4.60044,2469.773,2019-6-28T12:43:28Z
2019-06-28T10:46:14Z,42.805,6.029,13.3014,4.60038,2469.737,2019-6-28T12:46:31Z
2019-06-28T10:49:17Z,42.805,6.029,13.3021,4.60031,2469.797,2019-6-28T12:49:34Z
2019-06-28T10:52:20Z,42.805,6.029,13.3004,4.60046,2469.76,2019-6-28T12:52:37Z
2019-06-28T10:55:23Z,42.805,6.029,13.3007,4.60052,2469.75,2019-6-28T12:55:40Z
2019-06-28T10:58:26Z,42.805,6.029,13.3026,4.60029,2469.76,2019-6-28T12:58:43Z
2019-06-28T11:01:29Z,42.805,6.029,13.3031,4.60044,2469.76,2019-6-28T13:01:46Z
2019-06-28T11:04:32Z,42.805,6.029,13.3020,4.60011,2469.76,2019-6-28T13:04:49Z
2019-06-28T11:07:35Z,42.805,6.029,13.2998,4.59990,2469.76,2019-6-28T13:07:52Z
2019-06-28T11:10:38Z,42.805,6.029,13.2985,4.60017,2469.75,2019-6-28T13:10:55Z
2019-06-28T11:13:41Z,42.805,6.029,13.3001,4.60003,2469.737,2019-6-28T13:13:58Z
2019-06-28T11:16:44Z,42.805,6.029,13.2974,4.60037,2469.773,2019-6-28T13:17:01Z
2019-06-28T11:19:47Z,42.805,6.029,13.2976,4.60022,2469.773,2019-6-28T13:20:04Z
2019-06-28T11:22:50Z,42.805,6.029,13.2987,4.60028,2469.737,2019-6-28T13:23:07Z
2019-06-28T11:25:53Z,42.805,6.029,13.3014,4.60031,2469.773,2019-6-28T13:26:10Z
2019-06-28T11:28:56Z,42.805,6.029,13.3000,4.60009,2469.773,2019-6-28T13:29:13Z
2019-06-28T11:31:59Z,42.805,6.029,13.3024,4.60023,2469.76,2019-6-28T13:32:16Z
2019-06-28T11:35:02Z,42.805,6.029,13.3043,4.59997,2469.76,2019-6-28T13:35:19Z
2019-06-28T11:38:05Z,42.805,6.029,13.2998,4.59985,2469.75,2019-6-28T13:38:22Z
2019-06-28T11:41:07Z,42.805,6.029,13.2996,4.60029,2469.76,2019-6-28T13:41:25Z
2019-06-28T11:44:10Z,42.805,6.029,13.3002,4.60046,2469.773,2019-6-28T13:44:27Z
2019-06-28T11:47:13Z,42.805,6.029,13.3024,4.60041,2469.76,2019-6-28T13:47:30Z
2019-06-28T11:50:16Z,42.805,6.029,13.2998,4.60110,2469.783,2019-6-28T13:50:33Z
2019-06-28T11:53:19Z,42.805,6.029,13.3013,4.60032,2469.773,2019-6-28T13:53:36Z
2019-06-28T11:56:22Z,42.805,6.029,13.3019,4.60061,2469.783,2019-6-28T13:56:39Z
2019-06-28T11:59:25Z,42.805,6.029,13.3026,4.60029,2469.737,2019-6-28T13:59:42Z
2019-06-28T12:02:28Z,42.805,6.029,13.3007,4.60041,2469.76,2019-6-28T14:02:45Z
2019-06-28T12:05:31Z,42.805,6.029,13.3024,4.60005,2469.783,2019-6-28T14:05:48Z
2019-06-28T12:08:34Z,42.805,6.029,13.3025,4.60009,2469.773,2019-6-28T14:08:51Z
2019-06-28T12:11:37Z,42.805,6.029,13.3043,4.60027,2469.797,2019-6-28T14:11:54Z
2019-06-28T12:14:40Z,42.805,6.029,13.3031,4.60045,2469.783,2019-6-28T14:14:57Z
2019-06-28T12:17:43Z,42.805,6.029,13.3036,4.60049,2469.797,2019-6-28T14:18:00Z
2019-06-28T12:20:46Z,42.805,6.029,13.3015,4.60040,2469.76,2019-6-28T14:21:03Z
2019-06-28T12:23:49Z,42.805,6.029,13.3012,4.60038,2469.797,2019-6-28T14:24:06Z
2019-06-28T12:26:52Z,42.805,6.029,13.3037,4.60032,2469.797,2019-6-28T14:27:09Z
2019-06-28T12:29:55Z,42.805,6.029,13.2993,4.60051,2469.75,2019-6-28T14:30:12Z
2019-06-28T12:32:58Z,42.805,6.029,13.3014,4.60011,2469.783,2019-6-28T14:33:15Z
2019-06-28T12:36:01Z,42.805,6.029,13.3023,4.60024,2469.783,2019-6-28T14:36:18Z
2019-06-28T12:39:04Z,42.805,6.029,13.3029,4.60013,2469.797,2019-6-28T14:39:21Z
2019-06-28T12:42:06Z,42.805,6.029,13.3032,4.60001,2469.773,2019-6-28T14:42:24Z
2019-06-28T12:45:09Z,42.805,6.029,13.3034,4.60078,2469.783,2019-6-28T14:45:27Z
2019-06-28T12:48:12Z,42.805,6.029,13.3006,4.60074,2469.797,2019-6-28T14:48:29Z
2019-06-28T12:51:15Z,42.805,6.029,13.3005,4.60046,2469.783,2019-6-28T14:51:32Z
2019-06-28T12:54:18Z,42.805,6.029,13.3013,4.60013,2469.806,2019-6-28T14:54:35Z
2019-06-28T12:57:21Z,42.805,6.029,13.2999,4.60003,2469.797,2019-6-28T14:57:38Z
2019-06-28T13:00:24Z,42.805,6.029,13.3021,4.60062,2469.806,2019-6-28T15:00:41Z
2019-06-28T13:03:27Z,42.805,6.029,13.3012,4.60041,2469.806,2019-6-28T15:03:44Z
2019-06-28T13:06:30Z,42.805,6.029,13.3029,4.60057,2469.821,2019-6-28T15:06:47Z
2019-06-28T13:09:33Z,42.805,6.029,13.3034,4.60051,2469.844,2019-6-28T15:09:50Z
2019-06-28T13:12:36Z,42.805,6.029,13.2993,4.60095,2469.844,2019-6-28T15:12:53Z
2019-06-28T13:15:39Z,42.805,6.029,13.3019,4.60069,2469.806,2019-6-28T15:15:56Z
2019-06-28T13:18:42Z,42.805,6.029,13.3012,4.60039,2469.821,2019-6-28T15:18:59Z
2019-06-28T13:21:45Z,42.805,6.029,13.3036,4.60036,2469.797,2019-6-28T15:22:02Z
2019-06-28T13:24:48Z,42.805,6.029,13.3038,4.60106,2469.844,2019-6-28T15:25:05Z
2019-06-28T13:27:51Z,42.805,6.029,13.3016,4.60020,2469.844,2019-6-28T15:28:08Z
2019-06-28T13:30:54Z,42.805,6.029,13.3016,4.60019,2469.806,2019-6-28T15:31:11Z
2019-06-28T13:33:57Z,42.805,6.029,13.3032,4.60052,2469.821,2019-6-28T15:34:14Z
2019-06-28T13:37:00Z,42.805,6.029,13.3024,4.60010,2469.821,2019-6-28T15:37:17Z
2019-06-28T13:40:03Z,42.805,6.029,13.3014,4.60021,2469.821,2019-6-28T15:40:20Z
2019-06-28T13:43:06Z,42.805,6.029,13.3024,4.60021,2469.797,2019-6-28T15:43:23Z
2019-06-28T13:46:09Z,42.805,6.029,13.3001,4.60046,2469.821,2019-6-28T15:46:26Z
2019-06-28T13:49:11Z,42.805,6.029,13.3017,4.60004,2469.844,2019-6-28T15:49:29Z
2019-06-28T13:52:14Z,42.805,6.029,13.3039,4.60036,2469.83,2019-6-28T15:52:32Z
2019-06-28T13:55:17Z,42.805,6.029,13.3026,4.60000,2469.83,2019-6-28T15:55:34Z
2019-06-28T13:58:20Z,42.805,6.029,13.3021,4.60033,2469.867,2019-6-28T15:58:37Z
2019-06-28T14:01:23Z,42.805,6.029,13.3022,4.60033,2469.821,2019-6-28T16:01:40Z
2019-06-28T14:04:26Z,42.805,6.029,13.3021,4.60035,2469.806,2019-6-28T16:04:43Z
2019-06-28T14:07:29Z,42.805,6.029,13.2990,4.60058,2469.844,2019-6-28T16:07:46Z
2019-06-28T14:10:32Z,42.805,6.029,13.3005,4.60066,2469.853,2019-6-28T16:10:49Z
2019-06-28T14:13:35Z,42.805,6.029,13.3030,4.60014,2469.853,2019-6-28T16:13:52Z
2019-06-28T14:16:38Z,42.805,6.029,13.3021,4.60021,2469.853,2019-6-28T16:16:55Z
2019-06-28T14:19:41Z,42.805,6.029,13.2991,4.60025,2469.844,2019-6-28T16:19:58Z
2019-06-28T14:22:44Z,42.805,6.029,13.2990,4.60045,2469.853,2019-6-28T16:23:01Z
2019-06-28T14:25:47Z,42.805,6.029,13.3003,4.60026,2469.83,2019-6-28T16:26:04Z
2019-06-28T14:28:50Z,42.805,6.029,13.3009,4.60021,2469.876,2019-6-28T16:29:07Z
2019-06-28T14:31:53Z,42.805,6.029,13.2986,4.60039,2469.853,2019-6-28T16:32:10Z
2019-06-28T14:34:56Z,42.805,6.029,13.3000,4.60033,2469.844,2019-6-28T16:35:13Z
2019-06-28T14:37:59Z,42.805,6.029,13.2987,4.60029,2469.844,2019-6-28T16:38:16Z
2019-06-28T14:41:02Z,42.805,6.029,13.3002,4.60027,2469.844,2019-6-28T16:41:19Z
2019-06-28T14:44:05Z,42.805,6.029,13.2986,4.60031,2469.853,2019-6-28T16:44:22Z
2019-06-28T14:47:08Z,42.805,6.029,13.2983,4.60016,2469.844,2019-6-28T16:47:25Z
2019-06-28T14:50:11Z,42.805,6.029,13.2999,4.60021,2469.844,2019-6-28T16:50:28Z
2019-06-28T14:53:14Z,42.805,6.029,13.3015,4.59996,2469.853,2019-6-28T16:53:31Z
2019-06-28T14:56:16Z,42.805,6.029,13.3001,4.60052,2469.867,2019-6-28T16:56:34Z
2019-06-28T14:59:19Z,42.805,6.029,13.2982,4.60008,2469.867,2019-6-28T16:59:37Z
2019-06-28T15:02:22Z,42.805,6.029,13.3014,4.60026,2469.876,2019-6-28T17:02:39Z
2019-06-28T15:05:25Z,42.805,6.029,13.3010,4.60043,2469.853,2019-6-28T17:05:42Z
2019-06-28T15:08:28Z,42.805,6.029,13.3003,4.60011,2469.876,2019-6-28T17:08:45Z
2019-06-28T15:11:31Z,42.805,6.029,13.2996,4.60017,2469.867,2019-6-28T17:11:48Z
2019-06-28T15:14:34Z,42.805,6.029,13.2991,4.60028,2469.867,2019-6-28T17:14:51Z